Regional Weather Roundup
Issued by NWS

Home | Current Version | Previous Version | Graphics & Text | Print | Product List | Glossary On
Versions: 1 2 3 4 5 6 7 8 9 10 11 12 13 14 15 16 17 18 19 20 21 22 23 24 25 26 27 28 29 30 31 32 33 34 35 36 37 38 39 40 41 42 43 44 45 46 47 48 49 50
000
ASUS45 KBOI 242210
RWRID

IDAHO REGIONAL WEATHER ROUNDUP
NATIONAL WEATHER SERVICE BOISE ID
400 PM MDT TUE MAY 24 2016

NOTE: "FAIR" INDICATES FEW OR NO CLOUDS BELOW 12000 FEET
WITH NO SIGNIFICANT WEATHER AND/OR OBSTRUCTIONS TO VISIBILITY

IDZ012-014-242300-
SOUTHWEST IDAHO


CITY           SKY/WX    TMP DP  RH WIND       PRES   REMARKS
BOISE          MOSUNNY   71  32  23 NW9G20    29.82F
CALDWELL       MOSUNNY   73  36  25 NW7       29.83F
MOUNTAIN HOME  PTSUNNY   72  37  28 W16G22    29.81F
$$

IDZ016-017-242300-
SOUTHCENTRAL IDAHO


CITY           SKY/WX    TMP DP  RH WIND       PRES   REMARKS
BURLEY         PTSUNNY   59  41  51 W6        29.84S
JEROME         MOSUNNY   67  37  33 S9        29.84F
TWIN FALLS     MOSUNNY   63  36  36 CALM      29.85F
$$

IDZ019>023-242300-
SOUTHEAST IDAHO


CITY           SKY/WX    TMP DP  RH WIND       PRES   REMARKS
IDAHO FALLS    CLOUDY    63  35  35 VRB3      29.83F
POCATELLO      CLOUDY    63  38  39 W8        29.84S
REXBURG        CLOUDY    65  32  29 SW13G20   29.83S
$$

IDZ006-010-011-018-031-032-242300-
CENTRAL IDAHO MOUNTAINS


CITY           SKY/WX    TMP DP  RH WIND       PRES   REMARKS
MCCALL         PTSUNNY   56  30  37 W8        29.88S
HAILEY         LGT RAIN  52  43  71 N9        29.91
STANLEY          N/A     55  29  36 N10       29.90S
SALMON         MOSUNNY   57  36  44 N6        29.86F
CHALLIS        LGT RAIN  59  29  31 SW10G18   29.85R
$$

IDZ002-004-006-007-026-242300-
NORTHERN IDAHO


CITY           SKY/WX    TMP DP  RH WIND       PRES   REMARKS
LEWISTON       PTSUNNY   64  44  48 VRB6      29.91F
LOWELL           N/A     57  52  83 N3        29.93R
COEUR D`ALENE  MOSUNNY   63  46  55 W7        29.90S
MULLAN PASS    RAIN      39  39 100 NW6       29.95S VSB 1/4 WCI  35
$$



USA.gov is the U.S. government's official web portal to all federal, state and local government web resources and services.